SCP
0 0 0 0 0 0 0 1 2 2 3 3 5 7 7 6 6 6 7 6 6 5 5 6 8 8 9 10 10 9 8 8 7 6 5 5 4 4 3 2 2 2 2 2
0 0 0 0 0 0 0 1 2 3 3 4 5 6 6 6 6 6 6 6 6 6 6 7 8 9 10 11 12 11 9 9 8 8 7 6 5 4 3 2 2 2 2 2
0 0 0 0 1 1 1 2 2 3 4 5 5 5 5 6 6 6 5 5 6 7 7 8 8 10 11 12 14 14 11 10 11 12 12 9 7 4 3 2 2 2 2 2
0 0 0 1 1 1 2 3 3 5 6 7 6 6 6 6 6 5 5 5 6 7 9 10 10 11 11 11 13 15 14 13 16 18 16 12 7 4 3 2 2 2 2 2
0 0 0 1 1 2 3 4 5 8 9 8 8 8 8 7 6 7 8 9 9 10 12 14 14 13 12 11 12 15 17 18 20 20 16 10 5 3 3 3 2 2 2 2
0 0 1 1 2 2 3 4 6 9 10 8 9 11 12 11 9 11 15 16 14 13 16 18 17 16 14 12 12 15 19 21 20 16 11 6 4 3 3 3 2 2 2 1
0 0 1 2 2 2 2 3 6 9 9 8 10 14 16 16 14 16 20 19 16 17 19 19 17 16 14 12 11 14 19 20 15 9 6 4 3 3 3 3 2 2 1 1
0 1 1 2 3 2 3 4 7 9 9 9 12 16 19 21 20 19 20 20 19 20 20 18 15 14 13 11 11 14 19 18 11 6 4 3 3 3 3 3 2 2 1 1
3 2 2 3 3 3 4 7 10 11 11 12 14 18 23 27 26 23 20 20 21 22 20 17 14 13 12 11 11 15 19 16 9 5 4 3 3 3 2 2 2 2 1 1
6 5 4 4 4 5 7 9 11 11 11 13 17 21 26 29 28 24 23 23 24 24 22 19 16 14 12 12 12 15 16 11 6 5 4 4 3 3 2 2 2 2 1 1
8 6 5 4 5 6 8 9 11 11 12 16 23 27 28 27 25 23 24 26 28 28 26 21 17 13 11 10 10 11 11 7 5 4 5 4 4 3 2 2 2 2 1 1
7 6 5 5 5 7 8 9 10 11 15 22 30 31 28 24 20 19 21 23 25 25 23 19 14 12 10 8 8 7 6 5 4 4 5 5 4 3 2 2 1 1 1 1
8 7 6 6 6 6 7 8 8 10 17 26 31 30 27 22 17 15 15 14 15 15 14 13 11 10 9 8 7 6 6 5 4 4 4 5 4 3 2 2 1 1 1 0
10 10 9 8 7 7 7 8 7 8 14 20 22 22 22 19 15 11 8 7 7 8 9 10 10 10 9 8 7 7 6 5 4 3 4 4 4 3 2 2 2 1 1 0
13 13 11 10 9 8 8 8 7 7 7 9 10 12 13 13 10 6 4 3 3 5 8 9 10 10 10 8 7 7 7 6 4 3 3 3 3 3 2 2 2 1 1 0
12 12 12 11 10 9 8 7 6 5 4 3 4 4 5 5 5 3 1 1 2 3 5 7 9 11 12 11 10 9 8 6 5 3 2 2 2 2 1 2 2 1 1 1
8 8 8 9 9 7 6 5 4 3 2 2 2 1 2 2 1 1 0 0 1 1 2 5 7 10 13 14 13 12 10 8 5 3 2 1 1 1 1 1 1 1 1 1
4 4 4 5 6 5 4 3 2 2 1 1 1 1 1 1 0 0 0 0 0 0 1 2 4 8 12 16 16 15 13 10 6 3 1 0 0 0 0 0 0 1 1 1
2 2 2 2 3 3 2 2 1 1 1 1 1 0 0 0 0 0 0 0 0 0 0 1 2 5 10 14 17 17 15 11 7 3 1 0 0 0 0 0 0 0 1 0
2 2 2 1 2 2 1 1 1 1 1 0 0 0 0 0 0 0 0 0 0 0 0 0 1 3 7 11 14 16 15 12 7 3 1 0 0 0 0 0 0 0 0 0
1 1 1 1 1 1 1 1 1 0 0 0 0 0 0 0 0 0 0 0 0 0 0 0 1 3 5 7 11 14 15 12 8 3 1 0 0 0 0 0 0 0 0 0
1 1 1 1 1 1 1 0 0 0 0 0 0 0 0 0 0 0 0 0 0 0 0 0 1 3 4 5 7 10 12 11 8 3 1 0 0 0 0 0 0 0 0 0
1 1 1 0 0 0 0 0 0 0 0 0 0 0 0 0 0 0 0 0 0 0 0 0 1 3 4 4 5 6 7 8 5 2 1 0 0 0 0 0 0 0 0 0
0 0 0 0 0 0 0 0 0 0 0 0 0 0 0 0 0 0 0 0 0 0 0 0 1 2 3 3 2 2 3 3 2 1 0 0 0 0 0 0 0 0 0 0
0 0 0 0 0 0 0 0 0 0 0 0 0 0 0 0 0 0 0 0 0 0 0 0 1 1 1 1 1 0 1 1 1 0 0 0 0 0 0 0 0 0 0 0
0 0 0 0 0 0 0 0 0 0 0 0 0 0 0 0 0 0 0 0 0 0 0 0 0 0 1 1 0 0 1 1 1 0 0 0 0 0 0 0 0 0 0 0
0 0 0 0 0 0 0 0 0 0 0 0 0 0 0 0 0 0 0 0 0 0 0 0 0 0 0 0 0 0 1 1 1 1 0 0 0 0 0 0 0 0 0 0
Wind_Speed
3 4 2 2 4 2 2 6 8 8 8 9 9 10 9 8 7 7 6 6 7 7 7 7 7 7 7 7 7 8 8 7 6 5 5 5 4 4 4 3 3 3 3 2
4 4 4 4 4 4 3 1 4 5 4 6 6 4 4 6 8 8 7 8 8 7 7 7 8 8 8 8 8 8 8 7 6 6 6 5 5 4 4 3 3 3 3 2
3 6 5 4 3 2 3 1 4 5 6 4 3 5 7 8 9 8 8 7 7 7 7 7 7 8 9 8 8 8 8 7 7 7 6 5 5 5 4 3 3 3 2 2
0 3 3 8 3 2 3 3 2 3 3 5 6 6 6 7 10 10 8 7 7 7 7 6 6 6 7 8 8 8 8 7 7 7 6 5 5 4 4 3 3 2 2 2
2 1 5 6 4 2 2 4 2 3 2 2 3 5 3 0 4 7 7 6 6 6 7 6 6 7 7 7 7 8 8 7 7 7 7 6 5 4 3 3 3 2 3 3
3 3 5 6 6 3 5 2 3 3 4 3 5 4 3 2 3 4 4 5 5 5 6 6 5 7 8 7 7 7 7 7 7 7 7 7 6 4 3 3 3 3 2 2
4 4 6 5 6 4 2 6 4 1 3 4 4 5 5 2 2 3 4 4 5 6 6 6 6 8 8 7 7 6 6 6 5 5 5 5 4 3 3 3 3 3 2 2
2 3 7 5 4 1 4 3 1 1 1 4 5 5 5 4 4 5 5 5 6 6 5 4 6 8 7 6 5 6 7 6 6 5 4 4 5 4 4 4 3 2 2 1
4 5 4 2 1 2 1 1 1 1 2 5 6 6 6 4 4 5 6 5 5 6 5 4 5 7 7 5 6 7 7 6 6 5 3 3 4 4 3 3 3 2 2 2
1 2 3 3 2 3 3 2 2 3 4 5 7 6 5 5 5 5 6 5 5 7 7 4 4 4 5 6 7 8 8 6 5 5 4 3 3 3 3 3 3 3 3 2
1 3 4 5 4 3 4 5 4 4 4 4 8 7 5 5 5 5 5 4 5 6 6 5 4 5 5 6 7 8 7 6 5 5 5 4 3 2 3 2 3 4 3 3
4 4 2 4 4 3 4 3 3 4 5 2 4 6 5 5 4 5 5 4 5 5 5 4 4 4 4 5 7 7 6 5 4 4 4 4 4 2 2 1 1 2 3 3
4 2 2 3 3 3 3 3 3 3 3 1 2 5 6 5 4 4 5 5 5 4 4 4 4 4 3 4 5 6 6 5 4 4 4 4 4 4 3 1 2 2 1 3
1 1 0 1 1 2 3 3 4 5 4 3 3 4 5 5 4 5 4 3 3 4 4 4 4 3 3 4 5 5 5 5 4 4 4 4 4 4 4 4 2 0 1 1
1 1 2 0 1 2 3 4 5 4 4 5 4 3 4 5 4 3 3 3 4 4 4 4 3 2 2 3 4 4 4 3 3 3 4 4 3 3 3 3 3 2 1 0
0 1 2 2 2 2 4 3 3 1 2 3 2 2 2 4 4 3 3 3 4 3 2 2 2 1 2 3 4 3 2 4 4 3 3 3 3 3 3 3 3 3 2 2
1 1 1 1 2 3 3 1 1 1 2 3 2 2 3 4 4 3 3 2 2 2 2 1 1 1 2 3 4 2 2 2 4 3 3 3 3 3 3 3 3 3 3 3
1 2 2 2 1 1 1 1 1 1 3 3 3 4 4 4 4 3 2 2 3 3 2 1 0 1 2 2 3 3 3 2 2 2 2 3 3 3 3 3 3 3 2 2
3 3 2 1 0 0 1 0 0 2 2 3 4 3 3 3 3 3 3 3 2 1 1 0 2 2 2 1 3 3 3 3 3 2 2 3 3 2 2 2 2 2 2 2
2 3 3 2 3 2 1 1 2 2 2 3 4 3 2 2 3 3 3 2 1 1 1 1 2 2 1 2 3 3 3 3 3 3 3 3 2 2 2 2 1 1 2 2
2 2 2 2 2 2 2 2 3 2 2 3 3 2 2 2 3 3 3 2 1 1 2 3 2 2 1 2 3 2 2 3 3 3 3 3 3 2 2 2 2 2 1 2
2 1 1 2 2 2 2 2 2 2 2 2 2 2 2 2 2 3 3 1 1 3 3 2 2 2 2 3 2 2 2 3 3 3 3 3 3 2 2 2 2 2 2 2
2 2 2 2 1 1 2 2 2 2 2 1 1 2 2 2 2 3 2 1 2 3 3 2 3 4 5 3 3 3 3 3 3 3 3 2 2 3 3 3 2 2 2 2
2 2 2 2 3 3 3 2 2 2 2 2 2 2 3 3 2 2 2 3 4 4 2 2 4 4 4 2 3 3 3 3 3 2 2 2 2 2 2 2 2 2 2 2
2 2 3 3 3 2 2 2 3 3 4 3 4 3 2 2 2 2 2 3 4 4 2 3 4 4 3 2 3 3 3 3 3 2 2 3 3 3 3 3 3 2 2 2
2 2 2 2 1 1 1 2 2 2 3 3 3 3 3 3 3 3 2 3 3 3 2 2 2 3 3 3 3 3 3 3 3 3 3 3 3 3 3 3 3 2 2 2
3 2 2 3 3 3 3 3 3 3 3 3 3 2 2 2 3 3 3 3 3 3 3 2 2 2 3 3 3 3 3 3 3 3 3 3 3 3 3 3 3 3 3 3
Wind_Direction
226 238 241 268 292 293 203 191 184 205 190 210 203 189 182 167 153 137 151 165 173 174 171 165 160 159 163 167 167 159 153 155 162 159 151 146 146 146 139 133 136 137 132 126
340 333 350 324 318 318 290 204 166 156 213 221 203 177 154 160 155 159 173 180 174 163 157 162 166 165 167 171 168 157 157 161 161 154 149 146 145 141 136 134 133 128 131 133
304 318 11 314 289 313 312 299 156 186 220 196 167 179 175 173 163 171 186 183 170 164 162 166 172 171 173 167 162 157 160 164 161 158 157 159 153 146 145 141 131 127 132 130
315 18 245 247 276 59 63 12 79 143 175 177 177 187 179 164 163 180 189 179 171 166 163 168 173 167 161 156 159 163 164 166 162 158 156 153 150 154 155 147 146 145 142 141
128 205 274 297 321 356 67 343 13 125 146 146 129 82 36 209 174 181 182 176 174 168 161 161 163 158 151 156 159 162 164 165 164 161 156 155 159 164 159 151 150 153 152 150
150 185 231 253 289 305 79 325 315 115 138 166 126 121 238 240 161 152 160 162 158 151 140 146 157 151 146 154 156 166 169 164 159 160 158 160 164 164 156 147 153 147 144 148
183 217 252 268 305 18 95 227 276 208 156 167 188 188 190 178 145 137 139 141 140 137 143 153 152 144 147 152 167 168 152 144 144 149 149 149 149 149 143 138 134 137 142 142
158 207 250 317 2 90 226 246 267 330 122 143 145 126 118 123 125 115 111 119 129 127 133 145 142 140 145 158 158 138 134 136 134 132 140 146 141 139 135 139 141 144 134 120
189 215 250 305 197 223 141 88 9 59 89 134 128 126 117 120 116 108 108 111 116 118 116 114 131 137 143 151 141 136 134 139 140 132 134 153 151 146 139 143 149 151 143 150
358 289 310 331 24 26 39 46 33 83 111 126 121 122 119 128 121 113 108 110 109 110 112 108 115 123 135 138 137 137 135 143 146 140 148 155 140 144 151 161 165 167 174 175
308 289 347 349 358 15 13 33 46 57 74 126 127 125 131 131 128 121 109 109 118 120 121 122 116 115 123 136 140 140 142 149 152 149 154 148 138 148 165 182 181 173 188 179
231 242 215 280 307 6 35 37 71 79 62 52 132 128 123 119 121 121 122 127 119 116 118 118 117 118 127 141 145 143 145 155 161 159 157 153 144 108 57 105 122 162 169 165
213 235 220 261 324 13 31 23 64 74 106 137 134 121 117 111 103 107 117 123 125 126 127 123 117 121 128 140 141 145 153 162 163 164 164 165 163 159 156 63 53 71 164 179
168 117 322 319 318 15 50 48 66 54 59 83 97 96 100 101 98 97 99 105 116 115 118 119 119 127 138 137 141 147 152 159 160 169 171 172 172 172 169 165 162 274 306 199
252 156 197 210 39 50 66 63 65 58 64 56 62 79 100 107 105 102 100 97 95 100 107 113 125 143 142 137 139 147 153 159 158 161 158 161 164 164 170 170 166 164 131 44
217 28 34 37 32 39 54 60 81 76 96 95 83 74 107 116 107 97 96 103 108 112 124 123 133 159 144 141 141 145 156 160 156 157 156 159 160 160 175 183 182 181 190 196
65 343 348 344 27 37 42 58 119 168 125 113 124 122 112 105 98 89 78 84 105 111 114 134 176 167 139 144 145 147 145 150 150 149 155 159 158 166 176 179 188 197 206 192
176 189 195 185 157 58 26 62 87 104 122 129 118 112 119 128 138 142 125 97 80 58 40 54 116 115 120 135 145 142 138 138 139 142 145 144 148 152 155 171 184 191 203 184
51 51 16 354 87 60 328 306 113 100 103 108 104 105 115 135 147 139 119 103 99 76 301 352 87 88 97 113 125 130 131 138 135 128 123 125 124 130 146 162 177 183 178 165
23 20 31 30 32 39 28 52 81 89 101 109 108 104 112 134 135 128 113 98 134 206 188 103 89 76 72 96 107 121 132 140 135 128 124 129 135 138 138 137 137 139 142 145
17 18 35 30 22 32 44 65 78 76 77 96 107 117 140 133 132 127 116 92 337 56 87 83 76 64 59 90 105 115 122 124 130 136 137 135 134 132 125 117 111 103 102 111
39 18 27 37 36 25 26 46 64 79 83 84 93 104 105 105 110 102 100 124 122 89 81 67 61 65 80 93 98 103 113 115 117 119 121 124 125 124 120 120 120 122 123 122
26 24 30 36 53 57 44 47 53 66 77 92 107 111 118 127 127 121 108 80 97 90 80 67 73 77 79 82 86 89 100 114 117 118 120 122 125 129 129 130 132 129 124 121
30 30 22 27 42 53 46 22 35 66 82 79 82 105 114 105 76 72 116 113 103 94 81 79 86 88 87 80 85 91 92 93 101 110 117 117 112 110 113 117 119 119 116 110
31 39 41 44 42 38 36 37 40 52 68 66 56 58 76 105 118 107 96 102 108 97 84 78 87 88 81 79 89 92 93 95 100 105 103 104 106 105 103 104 109 115 116 115
37 44 33 40 51 52 54 66 71 71 77 73 54 47 57 68 85 89 94 100 100 100 97 84 86 83 76 80 87 90 91 91 90 91 99 104 108 109 109 110 111 117 116 111
33 37 40 36 29 41 59 69 77 78 81 94 87 64 65 74 82 86 89 91 89 81 75 71 73 77 78 80 80 78 80 86 90 94 98 102 105 107 111 110 107 107 106 106